Theta_e
300 301 303 305 306 307 310 324 331 333 336 339 342 341 340 338 335 334 333 330 325 329 331 328 330 331 332 327 337 337 336 335
298 298 301 303 305 306 307 308 312 326 333 335 338 341 341 339 337 335 334 332 325 329 329 328 330 327 332 328 334 337 336 335
300 297 297 299 302 305 306 307 308 311 318 331 331 336 337 340 339 338 335 333 329 326 329 326 330 327 329 331 328 337 336 335
300 299 297 297 299 300 302 304 306 308 311 317 316 329 335 334 337 339 337 335 332 325 326 329 328 328 326 333 330 331 336 333
301 300 299 298 298 299 299 303 306 307 307 308 309 319 332 333 334 334 338 337 335 329 325 328 325 327 329 332 330 330 334 335
301 300 299 298 298 300 301 300 302 306 306 308 308 309 324 323 330 333 336 338 338 333 327 324 327 327 328 332 332 329 332 334
301 300 299 298 298 299 302 301 300 302 304 304 305 306 307 309 322 325 331 336 336 337 330 327 327 327 326 330 332 330 329 332
300 300 299 298 299 297 300 300 302 301 299 298 297 299 303 305 308 315 326 326 332 335 334 329 327 327 326 328 331 330 329 330
300 300 299 298 299 297 299 300 301 301 300 299 298 297 300 301 304 307 317 322 325 330 333 330 328 327 325 326 329 329 329 330
300 300 299 298 298 297 298 298 300 302 300 300 299 297 296 300 301 303 306 316 322 325 326 328 329 329 329 327 329 330 328 330
300 300 299 298 298 296 296 297 300 300 299 299 298 297 294 297 299 301 303 308 319 323 327 329 328 328 331 330 329 330 331 329
300 300 299 298 298 297 295 297 299 298 298 299 298 295 294 297 297 298 300 303 308 314 324 326 328 327 328 330 329 328 330 330
300 299 299 298 298 297 295 297 298 297 295 296 296 294 295 297 296 297 298 300 302 308 313 320 325 326 325 327 331 329 329 330
299 299 298 298 297 297 295 296 297 296 295 292 293 292 294 295 296 295 296 297 299 301 306 316 317 323 324 325 326 326 327 328
299 299 299 297 297 297 295 295 296 295 294 292 291 292 293 294 293 294 295 295 296 297 301 304 310 319 320 325 326 325 324 328
299 299 298 297 297 296 295 295 296 295 294 289 290 291 293 292 293 293 295 295 295 295 297 301 303 307 317 323 324 327 325 328
299 299 299 297 297 296 295 295 295 295 294 292 289 291 292 291 292 292 293 294 294 294 295 299 301 303 305 310 321 325 325 325
300 299 298 297 296 295 294 295 295 294 292 290 290 290 291 291 291 292 292 293 294 294 294 296 299 302 304 307 310 316 325 325
300 298 297 296 295 294 293 294 294 292 289 288 289 290 290 290 290 291 291 292 292 293 295 296 296 299 303 307 309 313 320 324
299 298 297 295 294 293 294 294 293 291 291 289 288 289 290 290 290 290 291 291 292 291 294 295 296 298 300 305 307 312 316 321
Wind_Speed
34 36 29 24 19 18 16 13 13 13 11 14 12 14 15 15 16 15 15 15 15 14 14 15 15 14 14 22 26 24 19 15
37 40 35 30 25 21 19 16 16 12 14 12 16 15 17 18 18 19 18 17 17 17 16 16 17 15 16 23 26 24 19 22
39 42 38 37 32 25 20 20 22 19 14 13 11 18 18 17 20 20 20 19 19 20 19 18 19 17 18 23 27 26 21 20
39 40 42 37 36 34 31 26 21 23 20 17 20 13 18 18 17 23 23 22 21 22 22 20 21 21 22 25 28 29 24 20
38 40 41 38 36 35 37 32 24 24 28 27 24 16 17 23 21 23 22 22 24 25 26 25 25 23 23 26 28 29 26 21
36 39 41 38 35 32 35 36 29 22 22 20 22 21 15 19 21 19 19 21 25 26 29 28 25 25 25 26 28 30 27 21
34 37 41 37 36 32 31 35 33 28 25 27 28 26 20 22 18 18 19 23 24 26 28 28 27 26 27 26 28 29 28 27
33 35 38 36 34 35 30 29 32 35 32 31 34 31 25 23 19 17 19 16 20 27 27 25 26 26 28 28 25 28 29 29
33 34 37 34 32 35 30 29 26 32 38 35 33 35 30 22 21 18 17 18 16 16 25 22 22 24 26 28 28 25 27 29
32 32 36 34 34 33 30 28 23 27 31 33 36 36 34 29 21 18 16 17 9 12 19 24 28 27 26 27 30 28 28 28
32 32 36 34 37 38 31 24 23 24 26 33 36 37 33 34 31 21 18 15 14 8 20 28 34 30 28 29 28 34 32 31
27 30 35 34 38 41 33 22 24 25 26 30 33 33 29 31 34 30 20 17 14 14 19 20 30 43 37 30 30 28 34 36
28 32 34 34 39 43 35 29 27 31 26 28 29 32 28 30 33 34 28 21 18 14 14 16 30 30 33 35 29 34 30 36
30 33 31 32 36 41 35 26 28 32 34 31 29 25 24 28 32 33 33 26 21 16 15 14 13 27 24 33 29 36 27 35
29 28 29 31 34 40 37 31 32 37 42 39 31 24 21 22 26 29 31 29 24 22 17 14 16 20 12 22 19 25 33 32
23 23 27 29 32 38 35 30 30 33 39 36 38 25 25 25 25 26 28 30 28 23 21 19 20 19 21 23 29 14 26 24
20 23 26 26 31 34 34 28 26 33 37 42 30 25 24 26 30 26 25 30 30 26 23 19 18 23 17 22 26 22 38 41
21 24 25 25 30 32 30 24 29 36 42 37 28 27 26 26 30 27 25 27 30 29 25 22 19 19 24 20 20 20 17 40
20 24 23 26 29 31 28 25 30 39 33 30 29 27 28 27 28 27 26 26 30 30 28 24 19 17 21 22 22 28 18 21
20 21 24 28 30 29 26 27 33 32 32 31 34 27 26 26 27 27 26 27 28 31 29 27 21 19 18 20 21 22 34 20
Wind_Direction
19 13 7 2 355 357 352 314 299 301 279 244 239 243 233 237 243 241 245 243 235 227 222 229 220 219 196 187 185 184 185 188
23 22 17 10 4 1 2 350 342 306 277 258 249 232 226 231 232 242 239 239 236 231 227 227 227 217 204 191 194 193 196 182
15 19 21 20 16 12 7 2 349 337 322 278 291 247 228 222 229 232 243 241 236 232 228 232 231 221 210 196 201 202 199 193
14 13 14 19 21 18 12 3 11 13 350 315 322 288 252 242 233 232 225 240 240 235 232 230 234 226 212 202 204 205 208 202
12 5 10 11 16 17 16 14 11 17 7 354 322 305 251 261 244 234 225 225 236 234 231 230 233 228 219 210 208 207 212 216
10 2 5 8 13 14 11 9 14 14 13 357 339 336 281 286 261 251 233 228 224 231 233 235 233 233 225 215 213 213 211 219
10 2 1 8 10 10 13 4 5 1 357 349 340 333 328 317 285 273 249 225 221 221 232 233 236 234 233 222 218 219 219 217
5 2 359 8 6 4 7 6 359 355 357 356 4 354 327 315 304 302 260 265 228 221 223 228 237 239 236 229 223 221 227 224
3 360 357 9 2 2 3 3 4 354 352 348 353 358 355 335 315 308 284 273 256 236 211 212 235 240 241 236 228 221 225 231
359 359 359 4 354 1 357 358 8 1 352 341 344 350 356 358 342 317 306 286 284 193 227 215 225 228 236 237 232 225 223 234
357 355 358 359 353 357 356 8 10 6 352 343 339 339 346 4 0 341 311 298 282 255 202 211 225 232 232 230 233 234 227 226
358 356 355 353 350 352 357 4 359 346 343 342 335 344 349 357 2 360 337 307 294 281 224 221 223 231 242 234 225 231 237 230
3 357 356 351 349 351 357 2 345 345 347 330 334 344 357 354 352 2 356 343 309 305 290 251 229 229 237 248 242 232 233 240
357 352 353 349 347 348 354 356 339 342 348 337 335 341 359 357 352 353 1 349 337 313 301 273 268 221 256 245 255 249 240 233
348 346 347 347 343 343 350 356 345 347 348 346 352 356 3 357 347 349 355 358 345 331 304 306 271 227 218 218 229 239 244 238
349 348 349 345 343 344 350 352 345 344 344 345 339 352 357 357 350 353 349 355 352 337 322 298 285 277 238 217 224 203 222 239
347 341 346 344 342 344 349 344 338 338 340 341 343 349 351 357 356 354 352 349 351 345 332 318 290 271 269 249 230 234 251 246
343 346 352 344 343 345 350 338 339 341 338 340 352 348 350 350 354 353 353 347 348 348 338 326 314 280 271 264 251 237 248 226
347 353 354 348 348 349 343 342 340 345 350 358 350 348 349 349 354 353 353 348 346 346 346 335 322 305 263 267 255 241 236 237
355 357 354 351 350 352 348 342 345 353 360 6 5 353 350 352 353 354 351 351 345 342 346 343 331 317 294 264 267 254 237 242